DMSP 5D-2 F13 DEB, 40498

Orbit data source: Space-Track

DMSP 5D-2 F13 DEB, 40498 is space debris in SSO originally from a launch on Fri, 24 Mar 1995 UTC launched from the Air Force Western Test Range (AFWTR). Debris objects in space refer to the collection of defunct objects orbiting the Earth. Examples of debris include non-operational satellites, rocket bodies, and fragments generated from explosions, collisions, or faulty payload assembly.

Loading next visibility...
Identifier
40498, 1995-015CM
Orbit
SSO
Country
Flag of USUS
Related business
Manufacturer
Unknown
Mission
Spacecraft
Bus & Motor
Unknown
Mass
Unknown
Launch date (UTC)
1995-03-24 (31 years ago)
Launch vehicle
Unknown
Launch site
Air Force Western Test Range (AFWTR)
Object type
Payload
Rocket body
Debris
Shape & HBR
Unknown shape, 0.1 m
Radar Cross Section
Small (<0.1 m²)

Expand to show TLE details & history
Last TLE update: 3 days ago

TLE from 3 days ago
0 DMSP 5D-2 F13 DEB
1 40498U 95015CM  25347.81765632  .00005652  00000-0  21846-2 0  9995
2 40498  98.8952  12.8152 0027804  76.0576 284.3695 14.30315185555710
Epoch: 2025-12-13T19:37Z
TLE epoch observation values (Epoch: 2025-12-13T19:37:25.506Z)
Latitude
-0.00001°
Longitude
-4.28055°
Altitude
788.705 km
Speed
7.462 km/s
True Right ascension
00h 51m 15s
True Declination
0° 00' 00"
Sunlit
Object was in daylight at epoch
Visualization orbit readout
Latitude
Unknown
Longitude
Unknown
Altitude
Unknown
Speed
Unknown
Apparent Right ascension
Unknown
Apparent Declination
Unknown
Sunlit
N/A
Visualization observer readout
Local Sidereal Time
09:40:32
Azimuth
Unknown
Elevation
Unknown
Doppler factor
Unknown
Orbital elements
Apogee altitude
807.756 km
Perigee altitude
767.907 km
Semi-major axis
7,165.968 km
Eccentricity
0.00278
Inclination
98.8952°
RAAN
12.8152°
Arg. of periapsis
76.0576°
True anomaly
284.06059°
Mean anomaly
284.3695°
Eccentric anomaly
284.21507°
Mean motion
3.57792 °/min
Orbital period
100.62 mins
BSTAR
0.0021846
Loading maneuver chart data...
Computing Atmospheric mass density...

Documentation

Showing up to 5 results
|